Location: Radomski Observatory
(40.2854°N, 79.5145°W)
Time: 02:49:54
(UTC-04:00)

Cosmos 1072 Rocket - Visible Passes

Search period start: 03 September 2015 00:00
Search period end: 13 September 2015 00:00
Orbit: 948 x 1010 km, 82.9° (Epoch: 01 September)

Date Brightness Start Highest point End Pass type
(mag) Time Alt. Az. Time Alt. Az. Time Alt. Az.
03 Sep 5.5 03:29:45 10° N 03:35:35 42° ENE 03:38:01 30° ESE visible
03 Sep 5.3 05:15:39 10° NNW 05:20:52 28° W 05:22:40 24° WSW visible
04 Sep 7.1 02:14:11 10° NE 02:15:25 11° ENE 02:17:07 10° ENE visible
04 Sep 4.5 03:55:54 10° N 04:02:07 78° E 04:03:18 60° SSE visible
04 Sep 6.0 05:43:32 10° NW 05:46:57 15° W 05:47:58 14° W visible
05 Sep 6.4 02:38:02 10° NNE 02:42:30 21° ENE 02:44:01 19° E visible
05 Sep 4.5 04:22:23 10° NNW 04:28:29 58° W 04:28:41 58° WSW visible
06 Sep 5.6 03:03:36 10° N 03:09:19 38° ENE 03:09:30 38° E visible
06 Sep 5.3 04:49:16 10° NNW 04:54:11 31° W 04:54:11 31° W visible
07 Sep 4.8 03:29:40 10° N 03:35:04 62° NE 03:35:04 62° NE visible
07 Sep 6.0 05:16:55 10° NW 05:19:45 16° WNW 05:19:45 16° WNW visible
08 Sep 6.6 02:12:01 10° NNE 02:16:00 19° ENE 02:16:00 19° ENE visible
08 Sep 5.0 03:56:06 10° NNW 04:00:41 48° NW 04:00:41 48° NW visible
09 Sep 6.0 02:37:27 10° N 02:41:40 31° NE 02:41:40 31° NE visible
09 Sep 5.7 04:22:55 10° NNW 04:26:22 28° NW 04:26:22 28° NW visible
10 Sep 5.6 03:03:28 10° N 03:07:24 39° NNE 03:07:24 39° NNE visible
10 Sep 6.3 04:50:22 10° NW 04:52:05 15° NW 04:52:05 15° NW visible
11 Sep 6.8 01:46:02 10° NNE 01:48:27 16° NE 01:48:27 16° NE visible
11 Sep 5.7 03:29:50 10° NNW 03:33:09 34° NNW 03:33:09 34° NNW visible
12 Sep 6.4 02:11:20 10° NNE 02:14:15 23° NE 02:14:15 23° NE visible
12 Sep 6.1 03:56:34 10° NNW 03:58:58 22° NW 03:58:58 22° NW visible
